FDX48 KLAX-LOWW

Flight info

Callsign FDX48
Flight time N/A
Altitude 29000
Route OSHNN1 BEALE DCT EEVUN Q70 BLOBB/N0474F310 Q70 SAKES DCT CHE DCT MBW DCT RAP DCT DPR DCT KP09A DCT HML DCT 56N090W/N0466F330 61N080W DCT BEZED DCT AYROU/M080F330 DCT EPMAN DCT 67N050W/M080F350 6730N04000W 6730N03000W 67N020W 65N010W DCT GUNPA/N0459F350 DCT MITSI/N0458F370 DCT DOSUR DCT BUMIL DCT MILGU DCT OMELO DCT EVIKU DCT BITSI DCT MIKOV MIKOV8W
Aircraft A306/H-SDE3FGHIRWY/LB1

Departure

Time 2026-04-21 05:16
Airport Los Angeles International Airport (KLAX)

Arrival

Time N/A
Airport Vienna International Airport (LOWW)
Time Latitude Longitude Altitude Speed Heading
2026-04-21 04:43 33.93392 -118.38033 99 ft 0 kts 133°
2026-04-21 05:02 33.93396 -118.38040 100 ft 4 kts 107°
2026-04-21 05:03 33.93406 -118.38069 99 ft 4 kts 108°
2026-04-21 05:03 33.93411 -118.38100 99 ft 4 kts 78°
2026-04-21 05:03 33.93400 -118.38123 99 ft 4 kts 18°
2026-04-21 05:03 33.93392 -118.38126 100 ft 1 kts
2026-04-21 05:07 33.93394 -118.38126 99 ft 2 kts 360°
2026-04-21 05:07 33.93426 -118.38127 99 ft 6 kts 358°
2026-04-21 05:07 33.93481 -118.38128 100 ft 10 kts
2026-04-21 05:07 33.93556 -118.38128 100 ft 9 kts 359°
2026-04-21 05:08 33.93611 -118.38147 101 ft 9 kts 314°
2026-04-21 05:08 33.93621 -118.38218 101 ft 9 kts 262°
2026-04-21 05:08 33.93624 -118.38262 102 ft 3 kts 302°
2026-04-21 05:08 33.93630 -118.38267 100 ft 0 kts 328°
2026-04-21 05:13 33.93638 -118.38271 103 ft 3 kts 338°
2026-04-21 05:14 33.93667 -118.38277 102 ft 5 kts 351°
2026-04-21 05:14 33.93712 -118.38288 106 ft 8 kts 334°
2026-04-21 05:14 33.93728 -118.38355 106 ft 9 kts 262°
2026-04-21 05:14 33.93726 -118.38375 102 ft 1 kts 264°
2026-04-21 05:15 33.93707 -118.38559 102 ft 53 kts 262°
2026-04-21 05:15 33.93634 -118.39245 101 ft 111 kts 263°
2026-04-21 05:15 33.93522 -118.40383 102 ft 162 kts 263°
2026-04-21 05:15 33.93419 -118.41381 235 ft 187 kts 263°
2026-04-21 05:16 33.93198 -118.42994 736 ft 210 kts 261°
2026-04-21 05:16 33.92980 -118.44755 1688 ft 208 kts 260°
2026-04-21 05:16 33.92485 -118.46368 2620 ft 207 kts 240°
2026-04-21 05:16 33.91647 -118.47855 2937 ft 225 kts 233°
2026-04-21 05:17 33.90638 -118.49405 3140 ft 244 kts 231°
2026-04-21 05:17 33.89522 -118.51061 3420 ft 262 kts 231°
2026-04-21 05:17 33.88361 -118.52782 4046 ft 266 kts 231°
2026-04-21 05:17 33.87150 -118.54472 4764 ft 268 kts 224°
2026-04-21 05:18 33.85572 -118.55663 5421 ft 272 kts 198°
2026-04-21 05:18 33.83714 -118.55877 6079 ft 276 kts 174°
2026-04-21 05:18 33.81817 -118.55444 6796 ft 278 kts 168°
2026-04-21 05:18 33.79922 -118.54911 7493 ft 281 kts 167°
2026-04-21 05:19 33.78011 -118.54367 8195 ft 283 kts 167°
2026-04-21 05:19 33.76081 -118.53827 8897 ft 285 kts 167°
2026-04-21 05:19 33.74134 -118.53289 9577 ft 287 kts 168°
2026-04-21 05:19 33.72200 -118.52737 10207 ft 291 kts 165°
2026-04-21 05:20 33.70332 -118.51669 10484 ft 309 kts 143°
2026-04-21 05:20 33.68955 -118.49602 10697 ft 329 kts 117°
2026-04-21 05:20 33.68100 -118.46987 10926 ft 344 kts 111°
2026-04-21 05:20 33.67312 -118.44215 11152 ft 357 kts 111°
2026-04-21 05:21 33.66492 -118.41343 11344 ft 370 kts 111°
2026-04-21 05:21 33.65632 -118.38385 11547 ft 381 kts 111°
2026-04-21 05:21 33.64794 -118.35336 11855 ft 389 kts 107°
2026-04-21 05:21 33.64434 -118.32083 12271 ft 396 kts 94°
2026-04-21 05:22 33.64407 -118.28756 12707 ft 400 kts 92°
2026-04-21 05:22 33.64425 -118.25415 13147 ft 402 kts 92°
2026-04-21 05:22 33.64535 -118.22073 13581 ft 408 kts 85°
2026-04-21 05:22 33.65299 -118.18777 14003 ft 415 kts 67°
2026-04-21 05:23 33.66935 -118.15900 14414 ft 422 kts 47°
2026-04-21 05:23 33.69193 -118.13610 14843 ft 426 kts 38°
2026-04-21 05:23 33.71587 -118.11490 15258 ft 428 kts 37°
2026-04-21 05:23 33.74004 -118.09364 15683 ft 431 kts 37°
2026-04-21 05:24 33.76401 -118.07242 16057 ft 434 kts 37°
2026-04-21 05:24 33.78841 -118.05068 16471 ft 437 kts 38°
2026-04-21 05:24 33.81295 -118.02873 16837 ft 440 kts 38°
2026-04-21 05:24 33.83759 -118.00665 17223 ft 442 kts 38°
2026-04-21 05:25 33.86232 -117.98442 17585 ft 445 kts 38°
2026-04-21 05:25 33.88721 -117.96203 17955 ft 447 kts 38°
2026-04-21 05:25 33.91191 -117.93973 18272 ft 450 kts 38°
2026-04-21 05:25 33.93695 -117.91691 18627 ft 452 kts 38°
2026-04-21 05:26 33.96208 -117.89393 18963 ft 455 kts 38°
2026-04-21 05:26 33.98744 -117.87072 19269 ft 458 kts 38°
2026-04-21 05:26 34.01289 -117.84750 19598 ft 459 kts 38°
2026-04-21 05:26 34.03837 -117.82416 19927 ft 461 kts 38°
2026-04-21 05:27 34.06402 -117.80064 20206 ft 465 kts 38°
2026-04-21 05:27 34.08892 -117.77565 20520 ft 465 kts 46°
2026-04-21 05:27 34.11033 -117.74696 20827 ft 465 kts 52°
2026-04-21 05:27 34.13087 -117.71666 21126 ft 467 kts 53°
2026-04-21 05:28 34.15135 -117.68608 21393 ft 469 kts 53°
2026-04-21 05:28 34.17194 -117.65537 21690 ft 471 kts 53°
2026-04-21 05:28 34.19260 -117.62459 21994 ft 473 kts 53°
2026-04-21 05:28 34.21343 -117.59356 22270 ft 475 kts 53°
2026-04-21 05:29 34.23429 -117.56247 22559 ft 477 kts 53°
2026-04-21 05:29 34.25529 -117.53115 22783 ft 479 kts 53°
2026-04-21 05:29 34.27625 -117.49978 23056 ft 480 kts 53°
2026-04-21 05:29 34.29696 -117.46857 23323 ft 482 kts 53°
2026-04-21 05:30 34.31814 -117.43698 23570 ft 483 kts 53°
2026-04-21 05:30 34.33942 -117.40535 23818 ft 485 kts 53°
2026-04-21 05:30 34.36075 -117.37354 24046 ft 487 kts 53°
2026-04-21 05:30 34.38213 -117.34161 24272 ft 489 kts 53°
2026-04-21 05:31 34.40354 -117.30954 24487 ft 490 kts 53°
2026-04-21 05:31 34.42500 -117.27739 24723 ft 491 kts 53°
2026-04-21 05:31 34.44655 -117.24505 24953 ft 493 kts 53°
2026-04-21 05:31 34.46811 -117.21265 25159 ft 494 kts 53°
2026-04-21 05:32 34.48947 -117.18053 25342 ft 496 kts 53°
2026-04-21 05:32 34.51117 -117.14785 25555 ft 497 kts 53°
2026-04-21 05:32 34.53286 -117.11517 25761 ft 498 kts 53°
2026-04-21 05:32 34.55482 -117.08259 25949 ft 499 kts 52°
2026-04-21 05:33 34.57710 -117.05014 26126 ft 500 kts 52°
2026-04-21 05:33 34.59940 -117.01773 26296 ft 502 kts 52°
2026-04-21 05:33 34.62182 -116.98513 26452 ft 503 kts 51°
2026-04-21 05:33 34.64423 -116.95248 26649 ft 504 kts 52°
2026-04-21 05:34 34.66669 -116.91968 26818 ft 505 kts 52°
2026-04-21 05:34 34.68925 -116.88671 26991 ft 506 kts 52°
2026-04-21 05:34 34.71148 -116.85420 27242 ft 505 kts 52°
2026-04-21 05:34 34.73390 -116.82141 27438 ft 505 kts 52°
2026-04-21 05:35 34.75629 -116.78860 27693 ft 504 kts 52°
2026-04-21 05:35 34.77865 -116.75578 27935 ft 503 kts 52°
2026-04-21 05:35 34.80102 -116.72292 28142 ft 502 kts 52°
2026-04-21 05:35 34.82330 -116.69022 28380 ft 502 kts 52°
2026-04-21 05:36 34.84555 -116.65753 28603 ft 501 kts 52°
2026-04-21 05:36 34.86845 -116.62538 28762 ft 502 kts 49°
2026-04-21 05:36 34.89163 -116.59441 29002 ft 501 kts 49°
2026-04-21 05:36 34.91513 -116.56317 29186 ft 500 kts 49°
2026-04-21 05:37 34.93863 -116.53187 29308 ft 500 kts 49°
2026-04-21 05:37 34.96214 -116.50050 29452 ft 500 kts 49°
2026-04-21 05:37 34.98556 -116.46917 29617 ft 499 kts 49°
2026-04-21 05:37 35.00892 -116.43787 29781 ft 499 kts 49°
2026-04-21 05:38 35.03230 -116.40651 29926 ft 498 kts 49°
2026-04-21 05:38 35.05535 -116.37556 30078 ft 498 kts 49°
2026-04-21 05:38 35.07869 -116.34419 30253 ft 497 kts 49°
2026-04-21 05:38 35.10195 -116.31292 30410 ft 497 kts 49°
2026-04-21 05:39 35.12524 -116.28154 30547 ft 497 kts 49°
2026-04-21 05:39 35.14848 -116.25022 30691 ft 497 kts 49°
2026-04-21 05:39 35.17169 -116.21891 30853 ft 497 kts 49°
2026-04-21 05:39 35.19489 -116.18760 30972 ft 497 kts 49°
2026-04-21 05:40 35.24094 -116.12536 30981 ft 490 kts 49°
2026-04-21 05:40 35.28652 -116.06359 30981 ft 484 kts 49°
2026-04-21 05:41 35.33144 -116.00265 30973 ft 481 kts 49°
2026-04-21 05:41 35.37653 -115.94130 30970 ft 488 kts 49°
2026-04-21 05:42 35.42201 -115.87934 30971 ft 495 kts 49°
2026-04-21 05:42 35.46827 -115.81621 30970 ft 497 kts 49°
2026-04-21 05:43 35.51443 -115.75309 30971 ft 497 kts 49°
2026-04-21 05:43 35.56062 -115.68984 30971 ft 497 kts 49°
2026-04-21 05:44 35.60656 -115.62685 30973 ft 497 kts 49°
2026-04-21 05:44 35.65262 -115.56355 30980 ft 497 kts 49°
2026-04-21 05:45 35.69872 -115.50004 30981 ft 497 kts 49°
2026-04-21 05:45 35.74471 -115.43656 30981 ft 497 kts 49°
2026-04-21 05:46 35.79055 -115.37309 30996 ft 497 kts 50°
2026-04-21 05:46 35.83653 -115.30944 30988 ft 496 kts 49°
2026-04-21 05:47 35.88235 -115.24583 30996 ft 496 kts 49°
2026-04-21 05:47 35.92707 -115.18362 31480 ft 456 kts 51°
2026-04-21 05:48 35.94334 -115.15197 29859 ft 417 kts 56°
2026-04-21 05:48 35.95848 -115.12164 22062 ft 411 kts 67°
2026-04-21 05:48 35.96822 -115.09892 11934 ft 303 kts 54°
2026-04-21 05:48 35.97708 -115.07910 8964 ft 187 kts 50°
2026-04-21 05:49 35.99301 -115.08131 7188 ft 275 kts 348°
2026-04-21 05:49 36.00892 -115.08751 7936 ft 214 kts 324°